| time (UTC) | temp F | wind direction | speed MPH | gust MPH | rain 1hr in | rain 24hr in | rain mn in | humidity % | barometer mb |
| 20260905091537 | 49 | 36 | 3.0 | 4.0 | 0.00 | 0.00 | 0.00 | 71 | 1017.8 |
| 20260905090045 | 51 | 47 | 2.0 | 3.0 | 0.00 | 0.00 | 0.00 | 69 | 1017.8 |
| 20260905084535 | 53 | 51 | 3.0 | 4.0 | 0.00 | 0.00 | 0.00 | 66 | 1017.5 |
| 20260905083036 | 53 | 82 | 4.0 | 7.0 | 0.00 | 0.00 | 0.00 | 66 | 1017.2 |
| 20260905081537 | 53 | 35 | 3.0 | 5.0 | 0.00 | 0.00 | 0.00 | 65 | 1017.2 |
| 20260905080036 | 54 | 360 | 4.0 | 6.0 | 0.00 | 0.00 | 0.00 | 65 | 1017.7 |
| 20260905074534 | 53 | 324 | 6.0 | 11.0 | 0.00 | 0.00 | 0.00 | 66 | 1018.2 |
| 20260905073043 | 53 | 323 | 6.0 | 9.0 | 0.00 | 0.00 | 0.00 | 65 | 1018.1 |
| 20260905071535 | 54 | 325 | 0.0 | 3.0 | 0.00 | 0.00 | 0.00 | 63 | 1018.1 |
| 20260905070045 | 53 | 331 | 5.0 | 8.0 | 0.00 | 0.00 | 0.00 | 64 | 1017.6 |
| 20260905064538 | 54 | 328 | 4.0 | 5.0 | 0.00 | 0.00 | 0.00 | 61 | 1017.6 |
| 20260905063038 | 53 | 328 | 4.0 | 9.0 | 0.00 | 0.00 | 0.00 | 62 | 1017.6 |
| 20260905061545 | 52 | 298 | 5.0 | 8.0 | 0.00 | 0.00 | 0.00 | 64 | 1017.8 |
| 20260905060046 | 51 | 352 | 0.0 | 5.0 | 0.00 | 0.00 | 0.00 | 64 | 1017.8 |
| 20260905054540 | 49 | 15 | 4.0 | 8.0 | 0.00 | 0.00 | 0.00 | 64 | 1017.1 |
| 20260905053039 | 50 | 40 | 3.0 | 4.0 | 0.00 | 0.00 | 0.00 | 62 | 1016.9 |
| 20260905051545 | 50 | 57 | 3.0 | 5.0 | 0.00 | 0.00 | 0.00 | 62 | 1017.1 |
| 20260905050044 | 51 | 27 | 2.0 | 3.0 | 0.00 | 0.00 | 0.00 | 60 | 1017.4 |
| 20260905044543 | 52 | 56 | 0.0 | 4.0 | 0.00 | 0.00 | 0.00 | 57 | 1017.2 |
| 20260905043047 | 53 | 51 | 3.0 | 6.0 | 0.00 | 0.00 | 0.00 | 56 | 1016.9 |
| 20260905041551 | 54 | 44 | 0.0 | 0.0 | 0.00 | 0.00 | 0.00 | 55 | 1017.5 |
| 20260905040045 | 56 | 85 | 1.0 | 3.0 | 0.00 | 0.00 | 0.00 | 52 | 1017.0 |
| 20260905034559 | 56 | 85 | 3.0 | 6.0 | 0.00 | 0.00 | 0.00 | 51 | 1016.6 |
| 20260905033046 | 57 | 71 | 4.0 | 6.0 | 0.00 | 0.00 | 0.00 | 50 | 1016.0 |
| 20260905031543 | 58 | 17 | 2.0 | 3.0 | 0.00 | 0.00 | 0.00 | 48 | 1016.4 |
| 20260905030053 | 60 | 17 | 3.0 | 5.0 | 0.00 | 0.00 | 0.00 | 46 | 1015.8 |
| 20260905024547 | 61 | 42 | 3.0 | 6.0 | 0.00 | 0.00 | 0.00 | 45 | 1015.6 |
| 20260905023049 | 62 | 48 | 4.0 | 7.0 | 0.00 | 0.00 | 0.00 | 44 | 1015.7 |
| 20260905021546 | 63 | 13 | 4.0 | 5.0 | 0.00 | 0.00 | 0.00 | 42 | 1015.6 |
| 20260905020050 | 65 | 35 | 5.0 | 11.0 | 0.00 | 0.00 | 0.00 | 39 | 1014.9 |
| 20260905014547 | 66 | 30 | 10.0 | 15.0 | 0.00 | 0.00 | 0.00 | 38 | 1014.2 |
| 20260905013106 | 67 | 19 | 13.0 | 20.0 | 0.00 | 0.00 | 0.00 | 37 | 1013.7 |
| 20260905011555 | 68 | 14 | 13.0 | 20.0 | 0.00 | 0.00 | 0.00 | 35 | 1013.7 |
| 20260905010049 | 69 | 26 | 14.0 | 20.0 | 0.00 | 0.00 | 0.00 | 34 | 1013.7 |
| 20260905004623 | 70 | 41 | 12.0 | 20.0 | 0.00 | 0.00 | 0.00 | 34 | 1013.8 |
| 20260905003043 | 70 | 24 | 15.0 | 21.0 | 0.00 | 0.00 | 0.00 | 34 | 1013.6 |
| 20260905001559 | 71 | 27 | 15.0 | 24.0 | 0.00 | 0.00 | 0.00 | 34 | 1013.5 |
| 20260905000051 | 71 | 5 | 15.0 | 21.0 | 0.00 | 0.00 | 0.00 | 34 | 1013.1 |
| 20260904234546 | 70 | 330 | 15.0 | 21.0 | 0.00 | 0.00 | 0.00 | 34 | 1013.3 |
| 20260904233057 | 71 | 342 | 14.0 | 19.0 | 0.00 | 0.00 | 0.00 | 33 | 1013.6 |
| 20260904231552 | 74 | 346 | 15.0 | 23.0 | 0.00 | 0.00 | 0.00 | 30 | 1013.6 |
| 20260904230057 | 75 | 331 | 15.0 | 21.0 | 0.00 | 0.00 | 0.00 | 30 | 1013.1 |
| 20260904224545 | 75 | 343 | 16.0 | 21.0 | 0.00 | 0.00 | 0.00 | 30 | 1013.2 |
| 20260904223052 | 75 | 296 | 14.0 | 19.0 | 0.00 | 0.00 | 0.00 | 30 | 1013.0 |
| 20260904221556 | 75 | 292 | 16.0 | 22.0 | 0.00 | 0.00 | 0.00 | 31 | 1012.9 |
| 20260904220050 | 75 | 306 | 17.0 | 23.0 | 0.00 | 0.00 | 0.00 | 31 | 1012.9 |
| 20260904214548 | 76 | 302 | 19.0 | 25.0 | 0.00 | 0.00 | 0.00 | 30 | 1012.6 |
| 20260904213052 | 76 | 305 | 15.0 | 22.0 | 0.00 | 0.00 | 0.00 | 30 | 1012.4 |
| 20260904211552 | 76 | 265 | 18.0 | 23.0 | 0.00 | 0.00 | 0.00 | 30 | 1012.0 |
| 20260904210051 | 76 | 325 | 12.0 | 22.0 | 0.00 | 0.00 | 0.00 | 30 | 1011.8 |
| 20260904204553 | 75 | 286 | 16.0 | 22.0 | 0.00 | 0.00 | 0.00 | 30 | 1011.7 |
| 20260904203047 | 75 | 288 | 15.0 | 22.0 | 0.00 | 0.00 | 0.00 | 30 | 1011.6 |
| 20260904201554 | 75 | 273 | 17.0 | 24.0 | 0.00 | 0.00 | 0.00 | 31 | 1011.4 |
| 20260904200055 | 74 | 262 | 13.0 | 24.0 | 0.00 | 0.00 | 0.00 | 32 | 1011.5 |
| 20260904194604 | 73 | 288 | 12.0 | 18.0 | 0.00 | 0.00 | 0.00 | 34 | 1011.3 |
| 20260904193046 | 72 | 289 | 13.0 | 19.0 | 0.00 | 0.00 | 0.00 | 37 | 1011.2 |
| 20260904191551 | 70 | 260 | 12.0 | 17.0 | 0.00 | 0.00 | 0.00 | 39 | 1011.1 |
| 20260904190050 | 69 | 261 | 14.0 | 17.0 | 0.00 | 0.00 | 0.00 | 38 | 1010.9 |
| 20260904184556 | 69 | 296 | 11.0 | 17.0 | 0.00 | 0.00 | 0.00 | 39 | 1011.1 |
| 20260904183055 | 68 | 272 | 12.0 | 19.0 | 0.00 | 0.00 | 0.00 | 40 | 1010.9 |
| 20260904181608 | 68 | 261 | 14.0 | 19.0 | 0.00 | 0.00 | 0.00 | 40 | 1010.9 |
| 20260904180100 | 68 | 247 | 13.0 | 17.0 | 0.00 | 0.00 | 0.00 | 40 | 1010.7 |
| 20260904174546 | 67 | 258 | 12.0 | 18.0 | 0.00 | 0.00 | 0.00 | 42 | 1010.4 |
| 20260904173050 | 65 | 259 | 9.0 | 12.0 | 0.00 | 0.00 | 0.00 | 42 | 1010.5 |
| 20260904171613 | 64 | 242 | 6.0 | 11.0 | 0.00 | 0.00 | 0.00 | 44 | 1010.1 |
| 20260904170057 | 63 | 265 | 7.0 | 13.0 | 0.00 | 0.00 | 0.00 | 49 | 1010.1 |
| 20260904164611 | 62 | 281 | 12.0 | 15.0 | 0.00 | 0.00 | 0.00 | 49 | 1010.1 |
| 20260904163051 | 62 | 265 | 13.0 | 16.0 | 0.00 | 0.00 | 0.00 | 47 | 1009.9 |
| 20260904161559 | 62 | 263 | 12.0 | 17.0 | 0.00 | 0.00 | 0.00 | 47 | 1009.5 |
| 20260904160045 | 65 | 236 | 5.0 | 9.0 | 0.00 | 0.00 | 0.00 | 43 | 1009.4 |
| 20260904154553 | 64 | 55 | 0.0 | 1.0 | 0.00 | 0.00 | 0.00 | 45 | 1008.9 |
| 20260904153057 | 64 | 55 | 4.0 | 6.0 | 0.00 | 0.00 | 0.00 | 45 | 1008.2 |
| 20260904151557 | 63 | 80 | 4.0 | 8.0 | 0.00 | 0.00 | 0.00 | 47 | 1008.2 |
| 20260904150052 | 62 | 80 | 5.0 | 8.0 | 0.00 | 0.00 | 0.00 | 47 | 1008.1 |
| 20260904144551 | 62 | 90 | 4.0 | 9.0 | 0.00 | 0.00 | 0.00 | 47 | 1008.0 |
| 20260904143102 | 62 | 97 | 7.0 | 9.0 | 0.00 | 0.00 | 0.00 | 47 | 1008.0 |
| 20260904141559 | 59 | 84 | 4.0 | 8.0 | 0.00 | 0.00 | 0.00 | 51 | 1008.2 |
| 20260904140053 | 55 | 51 | 3.0 | 6.0 | 0.00 | 0.00 | 0.00 | 60 | 1008.5 |
| 20260904134552 | 54 | 11 | 3.0 | 6.0 | 0.00 | 0.00 | 0.00 | 61 | 1008.5 |
| 20260904133106 | 53 | 40 | 2.0 | 5.0 | 0.00 | 0.00 | 0.00 | 62 | 1008.4 |
| 20260904131559 | 52 | 40 | 5.0 | 7.0 | 0.00 | 0.00 | 0.00 | 64 | 1008.1 |
| 20260904130054 | 52 | 22 | 3.0 | 8.0 | 0.00 | 0.00 | 0.00 | 63 | 1008.1 |
| 20260904124548 | 52 | 49 | 6.0 | 10.0 | 0.00 | 0.00 | 0.00 | 63 | 1007.8 |
| 20260904123058 | 52 | 42 | 6.0 | 9.0 | 0.00 | 0.00 | 0.00 | 63 | 1007.7 |
| 20260904121649 | 52 | 42 | 3.0 | 7.0 | 0.00 | 0.00 | 0.00 | 61 | 1007.9 |
| 20260904120105 | 53 | 42 | 5.0 | 9.0 | 0.00 | 0.00 | 0.00 | 61 | 1007.7 |
| 20260904114604 | 54 | 42 | 5.0 | 9.0 | 0.00 | 0.00 | 0.00 | 59 | 1007.8 |
| 20260904113121 | 54 | 45 | 8.0 | 12.0 | 0.00 | 0.00 | 0.00 | 58 | 1008.0 |
| 20260904111626 | 54 | 46 | 9.0 | 12.0 | 0.00 | 0.00 | 0.00 | 58 | 1008.1 |
| 20260904110059 | 54 | 35 | 7.0 | 12.0 | 0.00 | 0.00 | 0.00 | 58 | 1008.2 |
| 20260904104615 | 54 | 37 | 6.0 | 11.0 | 0.00 | 0.00 | 0.00 | 58 | 1008.4 |
| 20260904103059 | 55 | 35 | 7.0 | 12.0 | 0.00 | 0.00 | 0.00 | 58 | 1008.5 |
| 20260904101558 | 54 | 34 | 6.0 | 10.0 | 0.00 | 0.00 | 0.00 | 59 | 1008.6 |
| 20260904100118 | 54 | 30 | 5.0 | 9.0 | 0.00 | 0.00 | 0.00 | 59 | 1008.5 |
| 20260904094610 | 54 | 17 | 7.0 | 11.0 | 0.00 | 0.00 | 0.00 | 58 | 1008.7 |
| 20260904093149 | 54 | 39 | 3.0 | 11.0 | 0.00 | 0.00 | 0.00 | 59 | 1008.8 |